www.pogodaiklimat.ru

Погода и климат >> Архив погоды >> Россия >> Ставропольский край >> Минеральные Воды


АРХИВ ПОГОДЫ в Минеральных Водах

Время (UTC), дата Ветер
(напр.,м/с)
 
Видим.   Явления Облачность Т
(С)
Тd
(С)
f
(%)
Тe
(С)
Тes
(С)
Комфортность P
(гПа)
Po
(гПа)
Тmin
(С)
Tmax
(С)
R
(мм)
R24
(мм)
S
(см)
06 9.06 СВ 3 20 км ясно +26.4 +14.2 47 +29 +38 жарко 1018.4 982.7
09 9.06 В 4
{10}
20 км ясно +30.7 +9.6 27 +30 +43 жарко 1017.7 982.5
12 9.06 В 4
{11}
20 км 3/3 1500 м
[Sc]
+31.7 +9.7 26 +31 +37 жарко 1016.8 981.7
15 9.06 В 4
{10}
20 км 6/0
[Ac trans Ci fib]
+29.7 +7.9 26 +29 +30 жарко 1016.4 981.1 +32.1
18 9.06 В 2 10 км 3/0
[Ac trans]
+23.4 +8.9 40 +25 +25 комфорт 1017.3 981.2
21 9.06 СВ 2 10 км ясно +20.7 +8.1 44 +23 +23 комфорт 1017.8 981.3
00 10.06 СВ 2 10 км ясно +16.8 +8.6 58 +17 +17 тепло 1017.5 980.7
03 10.06 В 2 20 км ясно +18.5 +9.3 55 +19 +21 тепло 1018.5 981.8 +14.8
06 10.06 В 5 20 км 4/0
[Ac trans]
+26.5 +9.3 34 +27 +32 жарко 1016.9 981.3
09 10.06 В 5-12
{12}
20 км 6/0
[Ac trans Ci fib]
+29.6 +9.2 28 +29 +36 жарко 1015.5 980.2
12 10.06 СВ 4
{12}
20 км 6/0
[Cs]
+31.4 +8.7 24 +30 +38 жарко 1013.6 978.6
15 10.06 В 4
{11}
20 км 8/0
[As trans Cs]
+31.1 +9.4 26 +30 +31 жарко 1012.9 977.8 +32.2
18 10.06 СВ 1 10 км 3/0
[Ci fib]
+24.6 +11.7 44 +26 +26 жарко 1014.3 978.5
21 10.06 В 2 10 км ясно +21.7 +11.3 52 +24 +24 комфорт 1014.1 977.9
00 11.06 СВ 1 10 км 3/0
[Ci fib]
+16.2 +12.0 76 +17 +17 тепло 1013.8 977.0
03 11.06 СВ 2 20 км ясно +18.4 +13.4 73 +19 +21 тепло 1013.5 977.0 +15.6
06 11.06 СВ 3 20 км ясно +24.6 +14.3 53 +27 +37 жарко 1012.0 976.3
09 11.06 СВ 3 20 км 8/0
[Ci sp]
+28.9 +14.4 41 +31 +45 жарко 1010.7 975.5
12 11.06 СВ 2 20 км 10/0
[Ac lent]
+31.1 +13.4 34 +32 +35 жарко 1009.0 974.1
15 11.06 В 2 20 км 6/0
[Ac lent]
+31.3 +12.9 33 +32 +33 жарко 1008.2 973.4 +32.2
18 11.06 СВ 2 10 км ясно +25.0 +12.9 47 +27 +27 жарко 1009.3 973.7
21 11.06 штиль 0 10 км ясно +19.9 +13.4 66 +22 +22 комфорт 1009.6 973.4
00 12.06 штиль 0 10 км ясно +16.8 +12.5 76 +17 +17 тепло 1010.3 973.7
03 12.06 В 1 20 км ясно +19.4 +11.6 61 +22 +23 комфорт 1010.5 974.2 +16.8
06 12.06 В 1 20 км 10/0
[Ci]
+25.7 +14.0 48 +28 +39 жарко 1009.2 973.7
09 12.06 СВ 3 20 км 8/0
[Ci fib]
+29.6 +13.6 38 +31 +45 жарко 1008.6 973.6
12 12.06 СВ 2 20 км 10/10 1000 м
[Sc]
+28.5 +14.1 41 +30 +30 жарко 1008.0 972.8
15 12.06 СЗ 1 20 км 10/10 1000 м
[Sc diur, vesp]
+28.0 +12.7 39 +29 +29 жарко 1008.2 973.0 +31.7
18 12.06 В 2 10 км слаб. ливневой дождь 10/10 600 м
[Cb cap]
+24.1 +13.6 52 +26 +26 жарко 1009.3 973.6
21 12.06 В 1 10 км {ливн. осадки} 8/8 1000 м
[Sc]
+19.3 +15.1 77 +22 +22 комфорт 1009.9 973.7
00 13.06 штиль 0 10 км {ливн. осадки} ясно +17.2 +14.4 84 +17 +17 тепло 1009.3 972.8
03 13.06 ЮЗ 1 20 км 8/0
[Ac lent]
+18.3 +15.0 81 +20 +20 тепло 1009.5 973.2 +15.8 0.0
06 13.06 В 1 20 км 8/0
[Ac trans]
+26.1 +10.4 37 +27 +34 жарко 1009.6 974.2
09 13.06 СВ 3 20 км 4/3 1000 м
[Cu med, cong Ac trans]
+31.1 +9.7 27 +31 +41 жарко 1008.9 974.0
12 13.06 СВ 3 20 км 8/6 1000 м
[Cu med, cong Ac trans]
+30.0 +13.6 37 +32 +35 жарко 1008.7 973.7
15 13.06 ЮЗ 4
{12}
20 км гроза без осадков 10/10 1000 м
[Cb cap]
+21.3 +15.5 70 +25 +25 комфорт 1011.7 975.6 +32.6
18 13.06 З 1
{10}
10 км {гроза} 10/5 1000 м
[Cb cap Ac trans]
+19.3 +14.4 73 +22 +22 комфорт 1012.8 976.4
21 13.06 З 1 10 км 10/10 1000 м
[Sc]
+18.9 +14.4 75 +21 +21 комфорт 1012.6 976.2
00 14.06 штиль 0 10 км 6/4 1000 м
[Sc Ac trans]
+17.0 +13.8 81 +17 +17 тепло 1013.1 976.4
03 14.06 ЮЗ 2 20 км 6/3 1000 м
[Sc Ac trans Ci fib]
+17.6 +14.7 83 +18 +19 по сезону 1013.7 977.1 +15.6
06 14.06 СВ 2 20 км 6/0
[Ac inh Ci fib]
+25.5 +13.5 47 +28 +36 жарко 1013.9 978.2
09 14.06 СВ 4 20 км 6/0
[Ac inh Ci fib]
+31.3 +10.2 27 +31 +40 жарко 1013.1 978.1
12 14.06 В 4
{10}
20 км 6/0
[Ac inh Ci fib]
+33.8 +4.8 16 +31 +37 жарко 1011.7 977.0
15 14.06 СВ 4
{12}
20 км 10/8 1000 м
[Cb cap Ci]
+29.0 +14.4 41 +31 +31 жарко 1012.8 977.6 +34.3
18 14.06 В 2
{11}
10 км 8/0
[Ac inh]
+23.8 +13.1 51 +26 +26 жарко 1014.1 978.2
21 14.06 В 2 10 км 3/0
[Ac inh]
+20.5 +14.7 69 +24 +24 комфорт 1014.9 978.6
00 15.06 СВ 2 10 км 3/3 600 м
[Sc]
+18.2 +15.3 83 +19 +19 тепло 1014.4 977.9
03 15.06 СВ 3 20 км 6/3 600 м
[Sc Ci]
+18.6 +15.4 82 +20 +20 тепло 1014.5 978.0 +17.5
06 15.06 СВ 4 20 км 5/5 600 м
[Cu hum]
+25.1 +16.2 58 +28 +32 жарко 1013.8 978.1
09 15.06 В 5-10
{11}
20 км 3/3 1000 м
[Cu hum]
+29.5 +12.6 35 +31 +38 жарко 1011.9 976.7
12 15.06 В 4
{10}
20 км 6/0
[Ac lent Ci]
+31.5 +11.1 29 +32 +38 жарко 1009.8 975.0
15 15.06 В 3 20 км 8/0
[Ac lent]
+29.9 +13.0 35 +31 +32 жарко 1009.8 974.8 +32.1
18 15.06 В 1 10 км ясно +25.1 +15.1 54 +28 +28 жарко 1010.7 975.1
21 15.06 В 1 10 км 5/0
[Ci sp]
+21.3 +15.6 70 +25 +25 комфорт 1011.3 975.3
00 16.06 СВ 2 10 км 3/0
[Ci sp]
+19.0 +11.5 62 +20 +20 тепло 1010.9 974.5

 

Местоположение метеостанции Минеральные Воды (Ставропольский край, Россия): широта 44.22 долгота 43.10 высота над уровнем моря 313 м.

В архиве по умолчанию представлена погода в Минеральных Водах за последнюю неделю. Архивные данные за месяц целиком и за предыдущие месяцы, начиная с января 2011 года, Вы можете получить, выбрав интересующий диапазон дат из раскрывающегося списка и нажав кнопку "Ввод!".


*Определитесь, кто Вы:
робот инопланетянин человек

Внимание! Время в таблицах - всемирное. Для получения местного времени необходимо прибавить поправку, которая равна 3 ч.

Смотрите также архив погоды в соседних городах и на ближайших метеорологических станциях:

Погода в Георгиевске (Ставропольский край, Россия) (30 км)
Погода в Кисловодске (Ставропольский край, Россия) (47 км)
Погода в Александровском (Ставропольский край, Россия) (56 км)
Погода в Шаджатмазе (Карачаево-Черкессия, Россия) (64 км)
Погода в Зеленокумске (Ставропольский край, Россия) (66 км)
Погода в Черкесске (Карачаево-Черкессия, Россия) (82 км)
Погода в Нальчике (Кабардино-Балкария, Россия) (88 км)
Погода в Прохладный (Кабардино-Балкария, Россия) (92 км)
Погода в Тырныаузе (Кабардино-Балкария, Россия) (95 км)
Погода в Невинномысске (Ставропольский край, Россия) (101 км)

Пояснения к столбцам:

Ветер - указаны скорость ветра в м/с - средняя за 10 мин, порывы в срок и между сроками (в фигурных скобках) и направление, откуда дует ветер: С - северный, СВ - северо-восточный, В - восточный, ЮВ - юго-восточный, Ю - южный, ЮЗ - юго-западный, З - западный, СЗ - северо-западный.
Видимость - горизонтальная дальность видимости в метрах или километрах. При видимости от 1 до 10 км при отсутствии осадков обычно наблюдается дымка, при ухудшении видимости до 1 км и менее - туман. В сухую погоду видимость может ухудшаться дымом, пылью или мглою.
Явления - указаны атмосферные явления, наблюдавшиеся в срок или в последний час перед сроком; фигурными скобками обозначены явления, наблюдавшиеся между сроками (за 1-3 часа до срока); квадратными скобками обозначены град или гололедные отложения с указанием их диаметра в мм.
Облачность - указаны через наклонную черту общая и нижняя облачность в баллах и высота нижней границы облаков в метрах; квадратными скобками обозначены формы облаков: Ci - перистые, Cs - перисто-слоистые, Cc - перисто-кучевые, Ac - высококучевые, As - высокослоистые, Sc - слоисто-кучевые, Ns - слоисто-дождевые, Cu - кучевые, Cb - кучево-дождевые. Подробнее классификацию облаков см. в Атласе облаков (PDF).
T - Температура воздуха - температура, измеренная на высоте 2 м над землей.
Td - Температура точки росы - температура, при понижении до которой содержащийся в воздухе водяной пар достигнет насыщения.
f - Относительная влажность воздуха - влажноcть воздуха, измеренная на высоте 2 м над землей.
Te - Эффективная температура - температура, которую ощущает одетый по сезону человек в тени. Характеристика душности погоды. При расчете учитывается влияние влажности воздуха и скорости ветра на теплоощущения человека.
Tes - Эффективная температура на солнце - температура, которую ощущает человек, с поправкой на солнечный нагрев. Характеристика знойности погоды. Зависит от высоты солнца над горизонтом, облачности и скорости ветра. Ночью, в пасмурную погоду, а также при ветре 12 м/с и более поправка равна нулю.
P - Атмосферное давление - приведенное к уровню моря атмосферное давление.
Po - Атмосферное давление - измеренное на уровне метеостанции атмосферное давление.
Tmin - Минимальная температура - минимум температуры воздуха на высоте 2 м над землей.
Tmax - Максимальная температура - максимум температуры воздуха на высоте 2 м над землей.
R - Количество осадков - Количество выпавших осадков за период времени, мм. При наведении курсора мыши на число - период времени, за который выпало указанное количество осадков.
R24 - Количество осадков - Количество выпавших осадков за 24 часа, мм.
S - Снежный покров - Высота снежного покрова, см. При наведении курсора мыши на число - состояние снежного покрова и степень покрытия местности в баллах.